Regional Weather Roundup
Issued by NWS Midland/Odessa, TX

Home | Current Version | Previous Version | Text Only | Print | Product List | Glossary On
Versions: 1 2 3 4 5 6 7 8 9 10 11 12 13 14 15 16 17 18 19 20 21 22 23 24 25 26 27 28 29 30 31 32 33 34 35 36 37 38 39 40 41 42 43 44 45 46 47 48 49 50
000
ASUS44 KMAF 042310
RWRMAF
MIDLAND AREA WEATHER ROUNDUP
NATIONAL WEATHER SERVICE MIDLAND TX
500 PM CST SUN DEC 04 2016

...IN SOUTHWEST TEXAS AND SOUTHEAST NEW MEXICO...

CITY           SKY/WX    TMP DP  RH WIND       PRES   REMARKS
ALPINE         CLOUDY    37  37  99 NE5       30.11R WCI  34
ANDREWS        FAIR      48  37  65 N6        30.05S
ARTESIA        CLEAR     45  34  65 CALM      30.08F
BIG SPRING       N/A     46  39  76 CALM      30.06
CARLSBAD       PTCLDY    43  36  76 N5        30.07F
DRYDEN           N/A     46  43  89 N9        30.04R
FORT STOCKTON  CLOUDY    43  42  97 NW6       30.07R WCI  39
GUAD PASS      CLOUDY    38  36  92 NE22      30.03S WCI  27
HOBBS          CLEAR     48  32  53 NE8       30.05F
MARFA          CLOUDY    38  35  89 N15       30.03R WCI  29
MIDLAND AIRPK  CLOUDY    48  38  68 N7        30.05S
MIDLAND INTL   CLEAR     49  38  65 N10       30.04F
ODESSA         CLEAR     48  37  65 N8        30.04F
PECOS          RAIN      44  42  93 NW8       30.07S WCI  39
PRESIDIO       CLOUDY    49  40  69 N10       30.01S
SEMINOLE       CLEAR     49  35  56 E5        30.06S
SNYDER         CLEAR     48  38  68 N3        30.03F
WINK           CLOUDY    47  40  76 N10       30.05S
$$
...OTHER STATIONS IN TEXAS...

CITY           SKY/WX    TMP DP  RH WIND       PRES   REMARKS
ABILENE        CLOUDY    47  41  80 N8        30.05S
AMARILLO       CLEAR     49  19  30 CALM      30.04F
AUSTIN         CLOUDY    52  48  86 N17       29.96S
BROWNSVILLE    CLOUDY    58  57  97 NW9       29.83F FOG
CORPUS CHRISTI CLOUDY    55  53  93 NE16G23   29.89R
DALLAS FTW     CLOUDY    52  42  69 N12       30.03R
DEL RIO        LGT RAIN  50  49  96 NW7       29.98F
EL PASO        MOSUNNY   57  28  33 N8        30.01F
HOUSTON INT    CLOUDY    53  50  89 N8        29.94R
LUBBOCK        PTCLDY    51  26  37 E6        30.04F
SAN ANGELO     CLOUDY    49  41  74 N10       30.03S
SAN ANTONIO    CLOUDY    51  48  89 N8        29.97R
WACO           CLOUDY    51  46  83 N12       30.02R
WICHITA FALLS  NOT AVBL
$$
...OTHER LOCATIONS IN NEW MEXICO...

CITY           SKY/WX    TMP DP  RH WIND       PRES   REMARKS
ALAMAGORDO     NOT AVBL
ALBUQUERQUE    PTCLDY    47  13  25 S6        30.07F
CANNON AFB     CLEAR     49  23  35 CALM      30.04F
CLOVIS         CLEAR     46  23  39 CALM      30.05S
HOLLOMAN AFB   CLEAR     54  26  33 SE5       30.06F
ROSWELL        CLEAR     49  29  46 E5        30.06S
RUIDOSO        CLEAR     45  19  36 SE5       30.08S
SANTA FE       CLEAR     44  14  29 W9        30.04F WCI  39
TRUTH OR CONSE SUNNY     54  12  18 NE5       30.03F
TUCUMCARI      CLEAR     50  22  33 SW7       30.00F
$$



USA.gov is the U.S. government's official web portal to all federal, state and local government web resources and services.